Location: Unspecified
(36.5600°N, 136.6600°E)
Time: 04:32:38
(UTC+09:00)

BlueWalker 3 - Pass Details

Date: 20 June 2024
Orbit: 480 x 491 km, 53.2° (Epoch: 24 July)

Event Time Altitude Azimuth Distance (km) Brightness Sun altitude
Rises 22:05:01 0° 284° (WNW) 2,536 6.1 -24.6°
Reaches altitude 10° 22:08:47 10° 323° (NW) 1,657 5.6 -25.0°
Maximum altitude 22:09:47 11° 339° (NNW) 1,605 5.5 -25.1°
Drops below altitude 10° 22:10:45 10° 354° (N) 1,653 5.5 -25.1°
Sets 22:14:34 0° 33° (NNE) 2,537 5.9 -25.5°
